Language: 


Des rapports , des résumés tant et plus, au choix de chacun....


Données Historiques de Météogheer
Journalier Rapport pour Novembre 30, 2017 Unitée:  Impériale    Métrique   Les deux
Suivant Jour »
Journalier Hebdomadaire Mensuel Annuel Sur mesure
  Max: Min: Moyenne:
Température: 38.8 °F 32 °F 37.2 °F
Point de rosée: 39.2 °F 33.8 °F 37.2 °F
Humidité: 98% 0% 98%
Vent: 14.3mph 0mph 3.9mph
Rafales: 17mph - -
Vent- - West
Pression: 29.8 in 0 in -
Pluie: 0.45 in    
Historical Graphs
 
 
Données tabulaires pour Novembre 30, 2017
Heure Température Point de rosée Pression Vent Vent Rafales Humidité Pluie Taux (Horaire) Conditions
00:01 37.6 °F 37.4 °F 29.8 in North 5.4 mph 6.3 mph 98% 0.01 in
00:06 37.8 °F 37.4 °F 29.8 in West 2.9 mph 6.3 mph 98% 0.01 in
00:11 37.8 °F 37.4 °F 29.7 in NW 4.3 mph 6.3 mph 98% 0 in
00:16 37.9 °F 37.4 °F 29.7 in North 3.1 mph 4.7 mph 98% 0 in
00:26 38.1 °F 37.4 °F 29.8 in WNW 3.4 mph 6 mph 98% 0 in
00:31 38.1 °F 37.4 °F 29.8 in Calm   6 mph 98% 0 in
00:36 38.1 °F 37.4 °F 29.8 in West 4 mph 4 mph 98% 0 in
00:41 38.1 °F 37.4 °F 29.8 in West 4 mph 5.6 mph 98% 0 in
00:46 38.1 °F 37.4 °F 29.8 in WNW 2.7 mph 6.3 mph 98% 0 in
00:48 38.1 °F 37.4 °F 29.8 in WNW 3.4 mph 6.3 mph 98% 0 in
00:53 38.1 °F 37.4 °F 29.8 in West 2.9 mph 6.3 mph 98% 0 in
00:58 38.1 °F 37.4 °F 29.7 in Calm   3.8 mph 98% 0 in
01:04 38.3 °F 39.2 °F 29.7 in Calm   4.7 mph 98% 0 in
01:10 38.3 °F 39.2 °F 29.7 in Calm   4.3 mph 98% 0 in
01:19 38.5 °F 39.2 °F 29.8 in Calm   4.3 mph 98% 0.01 in
01:24 38.7 °F 39.2 °F 29.8 in Calm   5.6 mph 98% 0.01 in
01:39 38.7 °F 39.2 °F 29.8 in West 2 mph 7.8 mph 98% 0.02 in
01:44 38.8 °F 39.2 °F 29.8 in NW 5.8 mph 6.5 mph 98% 0.02 in
01:49 38.8 °F 39.2 °F 29.8 in NNW 6 mph 8.7 mph 98% 0.02 in
01:54 38.7 °F 39.2 °F 29.8 in North 7.4 mph 10.1 mph 98% 0.03 in
02:05 38.1 °F 37.4 °F 29.7 in North 4 mph 8.1 mph 98% 0.06 in
02:10 38.1 °F 37.4 °F 29.7 in North 3.8 mph 7.2 mph 98% 0.06 in
02:15 38.1 °F 37.4 °F 29.7 in Calm   7.2 mph 98% 0.05 in
02:20 37.9 °F 37.4 °F 29.7 in Calm   6 mph 98% 0.05 in
02:25 37.9 °F 37.4 °F 29.7 in Calm   3.8 mph 98% 0.05 in
02:30 37.8 °F 37.4 °F 29.7 in Calm   4 mph 98% 0.05 in
02:35 37.6 °F 37.4 °F 29.7 in Calm   4 mph 98% 0.05 in
02:40 37.4 °F 37.4 °F 29.7 in Calm   2.7 mph 98% 0.05 in
02:45 37.4 °F 37.4 °F 29.7 in Calm   1.1 mph 98% 0.05 in
02:50 37.4 °F 37.4 °F 29.7 in Calm     98% 0.05 in
02:55 37.4 °F 37.4 °F 29.7 in Calm   2.7 mph 98% 0.04 in
03:02 32 °F 37.4 °F 0 in West 3.4 mph 4.2 mph 0% 0.03 in
03:07 37.6 °F 37.4 °F 29.8 in WNW 3.6 mph 4.7 mph 98% 0.04 in
03:12 37.6 °F 37.4 °F 29.8 in WNW 2.2 mph 4.7 mph 98% 0.06 in
03:17 37.4 °F 37.4 °F 29.8 in Calm   4 mph 98% 0.07 in
03:22 37.4 °F 37.4 °F 29.8 in Calm   2.5 mph 98% 0.09 in
03:27 37.4 °F 37.4 °F 29.7 in Calm   2.5 mph 98% 0.09 in
03:32 37.4 °F 37.4 °F 29.7 in Calm     98% 0.09 in
03:37 37.4 °F 37.4 °F 29.7 in Calm     98% 0.09 in
03:40 37.4 °F 37.4 °F 29.7 in Calm     98% 0.09 in
03:45 37.4 °F 37.4 °F 29.7 in Calm     98% 0.09 in
03:55 37.6 °F 37.4 °F 29.7 in Calm   3.6 mph 98% 0.1 in
04:05 37.6 °F 37.4 °F 29.7 in Calm   2.9 mph 98% 0.07 in
04:10 37.4 °F 37.4 °F 29.7 in Calm     98% 0.06 in
04:15 37.4 °F 37.4 °F 29.7 in Calm     98% 0.03 in
04:16 37.4 °F 37.4 °F 29.7 in Calm     98% 0.03 in
04:26 37.4 °F 37.4 °F 29.7 in WSW 5.4 mph 6 mph 98% 0.01 in
04:31 37.6 °F 37.4 °F 29.7 in West 4.3 mph 6.3 mph 98% 0.01 in
04:36 37.6 °F 37.4 °F 29.7 in West 5.6 mph 6.5 mph 98% 0.02 in
04:41 37.8 °F 37.4 °F 29.7 in Calm   6.5 mph 98% 0.02 in
04:57 38.7 °F 39.2 °F 29.7 in West 5.8 mph 6 mph 98% 0.01 in
05:02 38.8 °F 39.2 °F 29.7 in North 3.1 mph 8.7 mph 98% 0.01 in
05:12 38.7 °F 39.2 °F 29.7 in WNW 2.5 mph 9.8 mph 98% 0.01 in
05:17 38.7 °F 39.2 °F 29.7 in West 2.5 mph 9.8 mph 98% 0.01 in
05:22 38.5 °F 39.2 °F 29.7 in Calm   8.7 mph 98% 0.01 in
05:27 38.5 °F 39.2 °F 29.7 in West 3.4 mph 8.7 mph 98% 0.01 in
05:37 38.7 °F 39.2 °F 29.7 in North 2.7 mph 6.9 mph 98% 0 in
05:42 38.7 °F 39.2 °F 29.7 in Calm   6.5 mph 98% 0 in
05:47 38.7 °F 39.2 °F 29.7 in North 3.1 mph 6 mph 98% 0 in
05:52 38.5 °F 39.2 °F 29.7 in WSW 3.8 mph 8.1 mph 98% 0 in
05:57 38.5 °F 39.2 °F 29.7 in NNW 5.8 mph 8.7 mph 98% 0 in
06:02 38.5 °F 39.2 °F 29.7 in West 2.5 mph 8.7 mph 98% 0 in
06:08 38.3 °F 39.2 °F 29.7 in NW 5.6 mph 8.5 mph 98% 0 in
06:19 38.3 °F 39.2 °F 29.7 in West 4.9 mph 9.8 mph 98% 0 in
06:24 38.5 °F 39.2 °F 29.7 in West 3.1 mph 9.8 mph 98% 0 in
06:29 38.5 °F 39.2 °F 29.7 in West 3.1 mph 7.4 mph 98% 0 in
06:39 38.5 °F 39.2 °F 29.7 in NW 3.6 mph 6.3 mph 98% 0 in
06:44 38.5 °F 39.2 °F 29.7 in WNW 6.7 mph 7.6 mph 98% 0 in
06:49 38.7 °F 39.2 °F 29.7 in West 5.8 mph 10.3 mph 98% 0.01 in
06:59 38.7 °F 39.2 °F 29.7 in WNW 1.6 mph 6.7 mph 98% 0.01 in
07:09 38.5 °F 39.2 °F 29.7 in WNW 5.4 mph 7.4 mph 98% 0.01 in
07:15 38.5 °F 39.2 °F 29.7 in West 6 mph 7.4 mph 98% 0.01 in
07:25 38.1 °F 37.4 °F 29.7 in WNW 5.8 mph 7.2 mph 98% 0.01 in
07:35 37.9 °F 37.4 °F 29.7 in WNW 3.6 mph 7.8 mph 98% 0.01 in
07:40 37.8 °F 37.4 °F 29.7 in West 5.6 mph 7.8 mph 98% 0.01 in
07:50 37 °F 37.4 °F 29.7 in WSW 5.6 mph 7.2 mph 98% 0 in
08:01 36.7 °F 37.4 °F 29.7 in West 4.9 mph 6 mph 98% 0 in
08:06 36.7 °F 37.4 °F 29.7 in West 6.5 mph 6.5 mph 98% 0 in
08:11 36.5 °F 37.4 °F 29.7 in West 6 mph 8.9 mph 98% 0 in
08:16 36.5 °F 37.4 °F 29.7 in NW 3.6 mph 8.9 mph 98% 0 in
08:31 36.9 °F 37.4 °F 29.7 in West 10.3 mph 11.9 mph 98% 0 in
08:47 36.5 °F 37.4 °F 29.7 in West 6 mph 6.5 mph 98% 0 in
09:02 36.1 °F 37.4 °F 29.7 in West 7.6 mph 11.2 mph 98% 0 in
09:07 36.1 °F 37.4 °F 29.7 in West 4.9 mph 11.2 mph 98% 0 in
09:12 36.1 °F 37.4 °F 29.7 in West 5.8 mph 8.9 mph 98% 0 in
09:28 36.3 °F 37.4 °F 29.7 in WNW 6.5 mph 10.3 mph 98% 0 in
09:35 36.9 °F 37.4 °F 29.7 in West 4 mph 9.4 mph 98% 0 in
09:45 37 °F 37.4 °F 29.7 in West 8.1 mph 13 mph 98% 0 in
09:50 37 °F 37.4 °F 29.7 in NNE 3.4 mph 13 mph 98% 0 in
09:55 37 °F 37.4 °F 29.7 in West 6.5 mph 7.8 mph 98% 0 in
10:00 37.4 °F 37.4 °F 29.7 in West 6.3 mph 10.1 mph 98% 0 in
10:10 37.4 °F 37.4 °F 29.7 in West 6.3 mph 12.1 mph 98% 0 in
10:15 37.6 °F 37.4 °F 29.7 in WSW 10.1 mph 10.5 mph 98% 0 in
10:25 37.6 °F 37.4 °F 29.7 in West 6.3 mph 13 mph 98% 0 in
10:45 37.6 °F 37.4 °F 29.7 in West 10.1 mph 12.8 mph 98% 0 in
10:50 37.6 °F 37.4 °F 29.7 in WNW 8.5 mph 12.8 mph 98% 0 in
10:56 37.6 °F 37.4 °F 29.7 in WSW 8.1 mph 12.5 mph 98% 0 in
11:01 37.8 °F 37.4 °F 29.7 in West 6.5 mph 12.8 mph 98% 0 in
11:06 37.9 °F 37.4 °F 29.7 in West 6.3 mph 12.8 mph 98% 0 in
11:11 37.9 °F 37.4 °F 29.7 in WSW 3.6 mph 10.1 mph 98% 0 in
11:21 37.9 °F 37.4 °F 29.7 in NW 5.4 mph 13.2 mph 98% 0 in
11:26 37.9 °F 37.4 °F 29.7 in WSW 11 mph 13.2 mph 98% 0 in
11:36 38.1 °F 37.4 °F 29.7 in WSW 8.1 mph 12.5 mph 98% 0 in
11:41 37.9 °F 37.4 °F 29.7 in West 8.1 mph 13.2 mph 98% 0 in
11:46 38.1 °F 37.4 °F 29.7 in West 14.3 mph 14.3 mph 98% 0 in
11:51 38.1 °F 37.4 °F 29.7 in West 8.7 mph 14.3 mph 98% 0 in
11:56 38.3 °F 39.2 °F 29.7 in West 13 mph 15.7 mph 98% 0 in
12:02 37.6 °F 37.4 °F 29.7 in West 11 mph 15.7 mph 98% 0 in
12:12 37.4 °F 37.4 °F 29.7 in WNW 4.9 mph 15.2 mph 98% 0.01 in
12:17 37 °F 37.4 °F 29.7 in WSW 10.3 mph 14.1 mph 98% 0.01 in
12:22 37 °F 37.4 °F 29.7 in WNW 4 mph 13.9 mph 98% 0.01 in
12:32 37.4 °F 37.4 °F 29.7 in West 12.1 mph 15.2 mph 98% 0.01 in
12:37 37.4 °F 37.4 °F 29.7 in WSW 10.7 mph 15.2 mph 98% 0.01 in
12:42 37.6 °F 37.4 °F 29.7 in West 8.5 mph 12.8 mph 98% 0.01 in
12:52 37.4 °F 37.4 °F 29.7 in West 10.5 mph 16.3 mph 98% 0.01 in
12:57 37.4 °F 37.4 °F 29.7 in West 2.7 mph 17 mph 98% 0.01 in
13:02 37.2 °F 37.4 °F 29.7 in WSW 5.8 mph 17 mph 98% 0.01 in
13:07 37.2 °F 37.4 °F 29.7 in West 10.7 mph 12.8 mph 98% 0 in
13:12 37 °F 37.4 °F 29.7 in West 8.7 mph 13.6 mph 98% 0 in
13:17 37 °F 37.4 °F 29.7 in West 10.3 mph 14.3 mph 98% 0 in
13:22 37.2 °F 37.4 °F 29.7 in NW 12.1 mph 14.3 mph 98% 0 in
13:27 37.4 °F 37.4 °F 29.7 in West 11 mph 13.2 mph 98% 0 in
13:32 37.6 °F 37.4 °F 29.7 in WSW 5.6 mph 14.5 mph 98% 0 in
13:37 37.6 °F 37.4 °F 29.7 in West 7.8 mph 14.5 mph 98% 0 in
13:47 37.9 °F 37.4 °F 29.7 in West 7.6 mph 13.2 mph 98% 0 in
13:52 38.1 °F 37.4 °F 29.7 in West 7.6 mph 13.2 mph 98% 0 in
13:57 38.1 °F 37.4 °F 29.7 in West 5.6 mph 11 mph 98% 0 in
14:07 38.3 °F 39.2 °F 29.7 in West 3.6 mph 10.1 mph 98% 0 in
14:12 38.3 °F 39.2 °F 29.7 in West 2.5 mph 8.7 mph 98% 0 in
14:17 38.3 °F 39.2 °F 29.7 in West 3.8 mph 8.7 mph 98% 0 in
14:27 38.3 °F 39.2 °F 29.7 in West 2.9 mph 8.7 mph 98% 0 in
14:37 38.5 °F 39.2 °F 29.7 in WNW 3.8 mph 6.5 mph 98% 0 in
14:42 38.7 °F 39.2 °F 29.7 in North 3.6 mph 9.6 mph 98% 0 in
14:47 38.7 °F 39.2 °F 29.7 in NW 5.8 mph 9.6 mph 98% 0 in
14:52 38.7 °F 39.2 °F 29.7 in WNW 4.5 mph 7.6 mph 98% 0 in
14:57 38.7 °F 39.2 °F 29.7 in NNE 2.9 mph 7.8 mph 98% 0 in
15:02 38.7 °F 39.2 °F 29.7 in WNW 2.5 mph 10.3 mph 98% 0 in
15:07 38.7 °F 39.2 °F 29.7 in NW 1.6 mph 10.3 mph 98% 0 in
15:12 38.7 °F 39.2 °F 29.7 in NW 2.9 mph 10.3 mph 98% 0 in
15:22 38.7 °F 39.2 °F 29.7 in West 7.8 mph 11 mph 98% 0 in
15:27 38.7 °F 39.2 °F 29.7 in NW 7.4 mph 11 mph 98% 0 in
15:42 38.5 °F 39.2 °F 29.7 in NNW 5.8 mph 8.5 mph 98% 0 in
15:48 38.5 °F 37.4 °F 29.7 in West 4.3 mph 8.1 mph 97% 0 in
15:53 38.5 °F 37.4 °F 29.7 in West 4.3 mph 8.7 mph 97% 0 in
15:58 38.5 °F 37.4 °F 29.7 in NNW 5.8 mph 9.6 mph 97% 0 in
16:03 38.5 °F 37.4 °F 29.7 in North 5.4 mph 9.6 mph 97% 0 in
16:08 38.5 °F 37.4 °F 29.7 in West 0.9 mph 6 mph 97% 0 in
16:13 38.5 °F 37.4 °F 29.7 in WNW 3.6 mph 7.2 mph 97% 0 in
16:18 38.3 °F 37.4 °F 29.7 in West 4 mph 7.2 mph 97% 0 in
16:33 38.3 °F 39.2 °F 29.7 in West 5.4 mph 7.8 mph 98% 0 in
16:38 38.3 °F 37.4 °F 29.7 in WNW 3.4 mph 9.6 mph 97% 0 in
16:48 38.3 °F 37.4 °F 29.7 in WSW 2.5 mph 7.4 mph 97% 0 in
16:54 38.1 °F 37.4 °F 29.7 in West 7.4 mph 7.4 mph 97% 0.01 in
16:59 38.1 °F 37.4 °F 29.7 in WSW 5.6 mph 9.8 mph 97% 0.01 in
17:04 37.9 °F 37.4 °F 29.7 in West 2.9 mph 9.8 mph 97% 0.01 in
17:09 37.8 °F 37.4 °F 29.7 in West 2.7 mph 7.4 mph 97% 0.01 in
17:14 37.6 °F 37.4 °F 29.7 in North 2.7 mph 7.2 mph 97% 0.02 in
17:29 37.6 °F 37.4 °F 29.7 in NNW 4 mph 10.3 mph 98% 0.02 in
17:39 37.4 °F 37.4 °F 29.7 in WNW 7.8 mph 7.8 mph 98% 0.02 in
17:44 37.4 °F 37.4 °F 29.7 in West 3.1 mph 10.7 mph 98% 0.03 in
18:04 36.9 °F 37.4 °F 29.7 in West 4 mph 10.1 mph 98% 0.02 in
18:09 36.5 °F 37.4 °F 29.7 in West 3.6 mph 10.1 mph 98% 0.01 in
18:14 36.5 °F 37.4 °F 29.7 in WNW 4.9 mph 7.8 mph 98% 0.01 in
18:19 36.3 °F 37.4 °F 29.7 in SW 5.8 mph 7.6 mph 98% 0.01 in
18:24 36.1 °F 37.4 °F 29.7 in WNW 5.8 mph 8.7 mph 98% 0.01 in
18:29 36.1 °F 37.4 °F 29.7 in WSW 6 mph 8.7 mph 98% 0.01 in
18:39 36.1 °F 37.4 °F 29.7 in WNW 2.5 mph 6.7 mph 98% 0.02 in
18:44 36.1 °F 37.4 °F 29.7 in Calm   6.5 mph 98% 0.01 in
18:49 36.1 °F 37.4 °F 29.7 in West 3.1 mph 6.7 mph 98% 0.01 in
18:54 36.3 °F 37.4 °F 29.7 in West 3.8 mph 7.2 mph 98% 0.03 in
18:59 36.3 °F 37.4 °F 29.7 in West 3.8 mph 7.6 mph 98% 0.03 in
19:04 36.5 °F 37.4 °F 29.7 in WNW 3.6 mph 7.6 mph 98% 0.03 in
19:09 36.7 °F 37.4 °F 29.7 in NNW 4 mph 6.3 mph 98% 0.03 in
19:14 36.9 °F 37.4 °F 29.7 in NW 2.7 mph 6.3 mph 98% 0.03 in
19:19 36.9 °F 37.4 °F 29.7 in WNW 3.4 mph 9.2 mph 98% 0.03 in
19:24 37 °F 37.4 °F 29.7 in NE 2.9 mph 9.2 mph 98% 0.03 in
19:29 37.2 °F 37.4 °F 29.7 in West 1.3 mph 7.8 mph 98% 0.04 in
19:34 37.2 °F 37.4 °F 29.7 in SSW 7.4 mph 7.4 mph 98% 0.04 in
19:39 37.4 °F 37.4 °F 29.7 in NNW 3.6 mph 7.4 mph 98% 0.03 in
19:44 37.4 °F 37.4 °F 29.7 in WNW 4.9 mph 6.7 mph 98% 0.03 in
19:54 37.4 °F 37.4 °F 29.7 in NW 8.7 mph 9.8 mph 98% 0.01 in
19:59 37.4 °F 37.4 °F 29.7 in North 3.6 mph 12.8 mph 98% 0.02 in
20:00 37.4 °F 37.4 °F 29.7 in North 2 mph 12.8 mph 98% 0.03 in
20:06 37 °F 37.4 °F 29.7 in WSW 2.2 mph 10.5 mph 98% 0.03 in
20:11 37 °F 37.4 °F 29.7 in Calm   5.6 mph 98% 0.05 in
20:16 36.9 °F 37.4 °F 29.7 in Calm   4.9 mph 98% 0.05 in
20:21 36.9 °F 37.4 °F 29.7 in NE 6 mph 7.4 mph 98% 0.05 in
20:31 35.8 °F 35.6 °F 29.7 in NE 1.1 mph 9.8 mph 98% 0.03 in
20:36 35.4 °F 35.6 °F 29.7 in Calm   8.7 mph 98% 0.03 in
20:41 35.1 °F 35.6 °F 29.7 in Calm   6 mph 98% 0.03 in
20:46 34.9 °F 35.6 °F 29.7 in NE 6.3 mph 7.4 mph 98% 0.03 in
20:56 34.2 °F 33.8 °F 29.7 in North 2.9 mph 10.1 mph 98% 0.03 in
21:06 34 °F 33.8 °F 29.7 in North 5.4 mph 7.4 mph 98% 0.02 in
21:16 33.8 °F 33.8 °F 29.7 in North 3.1 mph 8.7 mph 98% 0.01 in
21:26 33.6 °F 33.8 °F 29.7 in Calm   6.5 mph 98% 0.01 in
21:36 33.8 °F 33.8 °F 29.7 in Calm   6.5 mph 98% 0.01 in
21:41 33.8 °F 33.8 °F 29.7 in Calm   3.8 mph 98% 0.01 in
21:46 33.8 °F 33.8 °F 29.7 in Calm   3.1 mph 98% 0 in
21:56 33.8 °F 33.8 °F 29.7 in Calm     98% 0.01 in
22:01 33.8 °F 33.8 °F 29.7 in Calm     98% 0.03 in
22:06 33.8 °F 33.8 °F 29.7 in Calm     98% 0.03 in
22:11 33.8 °F 33.8 °F 29.7 in Calm     98% 0.04 in
22:16 33.8 °F 33.8 °F 29.7 in Calm     98% 0.04 in
22:31 33.8 °F 33.8 °F 29.7 in North 3.1 mph 3.1 mph 98% 0.06 in
22:41 33.8 °F 33.8 °F 29.7 in NNW 2.7 mph 6 mph 98% 0.06 in
22:46 33.6 °F 33.8 °F 29.7 in WNW 1.6 mph 4.3 mph 98% 0.06 in
22:51 33.6 °F 33.8 °F 29.7 in WNW 1.6 mph 3.4 mph 98% 0.06 in
22:56 33.6 °F 33.8 °F 29.7 in NW 0.9 mph 3.6 mph 98% 0.05 in
23:02 33.6 °F 33.8 °F 29.7 in Calm   3.6 mph 98% 0.03 in
23:07 33.6 °F 33.8 °F 29.7 in Calm   1.1 mph 98% 0.03 in
23:22 33.6 °F 33.8 °F 29.7 in Calm   2.5 mph 98% 0.03 in
23:27 33.6 °F 33.8 °F 29.7 in Calm     98% 0.02 in
23:32 33.6 °F 33.8 °F 29.7 in Calm     98% 0.03 in
23:37 33.6 °F 33.8 °F 29.7 in Calm   0.9 mph 98% 0.03 in
23:42 33.6 °F 33.8 °F 29.7 in Calm   1.1 mph 98% 0.05 in
23:47 33.6 °F 33.8 °F 29.7 in Calm   2.2 mph 98% 0.05 in
23:52 33.6 °F 33.8 °F 29.7 in Calm   2.2 mph 98% 0.05 in
23:57 33.6 °F 33.8 °F 29.7 in Calm   1.1 mph 98% 0.06 in
Données Historique de Météo Turbie

Mise a jour : 22/05/2018 04:20:13
Généré par Cumulus 1.9.4 (1099)